FW9733 Weather Reports


Display with metric or nautical units.
time (UTC)temp
F
wind
direction
speed
MPH
gust
MPH
rain 1hr
in
rain 24hr
in
rain mn
in
humidity
%
barometer
mb
20260503040055 50 65 0.0 1.0 0.00 0.00 0.00 65 1020.0
20260503034551 52 0 0.0 1.0 0.00 0.00 0.00 63 1019.9
20260503033051 52 0 0.0 1.0 0.00 0.00 0.00 62 1019.7
20260503031547 53 0 0.0 0.0 0.00 0.00 0.00 62 1019.5
20260503030047 53 0 0.0 0.0 0.00 0.00 0.00 61 1019.4
20260503024549 54 0 0.0 2.0 0.00 0.00 0.00 59 1019.1
20260503023055 55 0 0.0 3.0 0.00 0.00 0.00 58 1019.1
20260503021547 55 0 0.0 3.0 0.00 0.00 0.00 54 1019.0
20260503020050 56 0 0.0 1.0 0.00 0.00 0.00 50 1018.9
20260503014559 57 0 0.0 3.0 0.00 0.00 0.00 46 1019.1
20260503013051 59 326 0.0 4.0 0.00 0.00 0.00 41 1019.0
20260503011545 61 212 1.0 4.0 0.00 0.00 0.00 36 1019.0
20260503010053 62 0 0.0 2.0 0.00 0.00 0.00 36 1019.1
20260503004608 62 297 0.0 3.0 0.00 0.00 0.00 34 1019.0
20260503003051 62 298 0.0 5.0 0.00 0.00 0.00 36 1019.0
20260503001550 62 271 0.0 5.0 0.00 0.00 0.00 35 1019.0
20260503000049 63 229 1.0 6.0 0.00 0.00 0.00 36 1019.1
20260502234553 63 168 1.0 4.0 0.00 0.00 0.00 35 1018.9
20260502233045 64 164 0.0 4.0 0.00 0.00 0.00 34 1019.1
20260502231549 64 193 1.0 6.0 0.00 0.00 0.00 33 1019.1
20260502230051 64 288 1.0 6.0 0.00 0.00 0.00 33 1019.2
20260502224548 65 253 0.0 6.0 0.00 0.00 0.00 31 1019.5
20260502223047 65 346 1.0 5.0 0.00 0.00 0.00 31 1019.9
20260502221544 66 5 0.0 6.0 0.00 0.00 0.00 29 1020.1
20260502220047 66 274 0.0 6.0 0.00 0.00 0.00 28 1020.3
20260502214556 66 281 0.0 3.0 0.00 0.00 0.00 25 1020.2
20260502213052 67 146 1.0 4.0 0.00 0.00 0.00 28 1020.2
20260502211555 68 0 1.0 5.0 0.00 0.00 0.00 25 1020.4
20260502210100 68 115 0.0 5.0 0.00 0.00 0.00 25 1020.6
20260502204552 68 324 0.0 6.0 0.00 0.00 0.00 25 1020.6
20260502203050 68 0 1.0 4.0 0.00 0.00 0.00 24 1020.8
20260502201550 67 4 1.0 5.0 0.00 0.00 0.00 26 1020.9
20260502200051 66 330 0.0 6.0 0.00 0.00 0.00 26 1021.0
20260502194551 67 349 2.0 7.0 0.00 0.00 0.00 25 1021.3
20260502193047 68 299 2.0 7.0 0.00 0.00 0.00 24 1021.4
20260502191545 68 278 0.0 4.0 0.00 0.00 0.00 25 1021.4
20260502190051 67 295 1.0 5.0 0.00 0.00 0.00 25 1021.4
20260502184554 67 257 1.0 5.0 0.00 0.00 0.00 25 1021.5
20260502183048 68 0 1.0 5.0 0.00 0.00 0.00 23 1021.7
20260502181552 68 237 0.0 3.0 0.00 0.00 0.00 22 1021.7
20260502163056 63 0 0.0 2.0 0.00 0.00 0.00 27 1021.9
20260502161550 62 295 0.0 1.0 0.00 0.00 0.00 29 1022.0
20260502151554 49 0 0.0 0.0 0.00 0.00 0.00 54 1021.9
20260502123051 32 0 0.0 0.0 0.00 0.00 0.00 71 1021.1
20260502121551 32 0 0.0 1.0 0.00 0.00 0.00 71 1021.0
20260502114548 33 0 0.0 0.0 0.00 0.00 0.00 70 1021.1
20260502113053 33 0 0.0 1.0 0.00 0.00 0.00 70 1021.1
20260502111545 33 0 0.0 0.0 0.00 0.00 0.00 69 1021.2
20260502110049 33 0 0.0 0.0 0.00 0.00 0.00 68 1021.1
20260502104549 34 0 0.0 0.0 0.00 0.00 0.00 69 1021.1
20260502103101 34 0 0.0 0.0 0.00 0.00 0.00 69 1021.1
20260502101600 34 0 0.0 0.0 0.00 0.00 0.00 68 1021.2
20260502100108 34 0 0.0 0.0 0.00 0.00 0.00 68 1021.3
20260502070052 38 0 0.0 1.0 0.00 0.00 0.00 64 1022.1
20260502064555 38 0 0.0 0.0 0.00 0.00 0.00 65 1022.0
20260502063046 38 0 0.0 0.0 0.00 0.00 0.00 64 1022.1
20260502061558 39 0 0.0 0.0 0.00 0.00 0.00 61 1022.1
20260502060049 39 0 0.0 0.0 0.00 0.00 0.00 60 1021.9
20260502054544 40 0 0.0 0.0 0.00 0.00 0.00 61 1022.1
20260502053057 40 0 0.0 0.0 0.00 0.00 0.00 59 1022.2
20260502051549 41 0 0.0 0.0 0.00 0.00 0.00 61 1022.1
20260502050049 41 0 0.0 0.0 0.00 0.00 0.00 61 1022.0
20260502044545 42 0 0.0 0.0 0.00 0.00 0.00 58 1022.0
20260502043055 43 0 0.0 0.0 0.00 0.00 0.00 61 1022.0
20260502041550 44 0 0.0 0.0 0.00 0.00 0.00 63 1021.7